Wind_Speed
6 6 6 5 5 3 2 1 1 2 3 5 5 6 6 6 7 7 7 8 8 8 8 8 8 8 9 9 9 8 8 8 8 8 8 8 8 9 9 9 9 10 9
7 7 7 7 6 5 4 3 2 3 3 4 4 5 5 5 6 6 7 7 7 7 7 7 7 8 8 8 8 8 8 8 8 8 7 8 8 9 9 9 9 9 9
7 7 7 7 6 6 5 3 3 3 4 4 4 4 4 5 5 5 5 5 6 6 6 6 6 7 8 8 8 8 8 8 8 8 8 8 8 9 9 9 9 9 9
7 7 8 7 7 6 6 5 5 5 5 5 5 4 4 4 4 4 5 5 5 5 6 5 6 6 7 8 8 8 7 7 8 8 9 9 9 9 9 9 10 10 9
8 8 8 7 7 7 6 6 5 5 6 6 6 5 5 4 4 4 4 4 4 5 5 5 5 5 6 6 6 6 7 7 8 8 8 8 8 8 9 9 10 10 10
8 8 8 8 8 7 7 7 7 6 6 6 6 6 6 5 5 4 4 4 3 3 3 3 3 3 4 5 4 5 6 6 6 7 7 7 8 8 8 9 10 10 10
8 9 9 9 8 8 8 8 8 7 7 6 7 7 7 6 6 5 5 4 3 3 2 3 2 2 3 3 3 4 4 5 6 6 7 7 7 8 8 8 9 10 10
8 8 8 8 8 8 8 8 8 7 7 7 7 7 6 5 5 5 5 4 4 3 2 3 3 3 3 2 2 2 3 4 6 6 6 7 7 7 8 9 9 10 10
7 7 8 8 8 8 8 8 8 8 7 7 7 6 6 5 5 5 4 3 3 3 2 2 2 2 1 1 0 1 2 3 4 5 6 6 6 7 8 8 9 9 10
7 7 8 8 8 8 8 8 8 7 7 6 6 6 5 5 5 5 4 3 3 3 3 2 2 1 1 0 1 2 3 3 3 4 5 6 6 7 7 8 7 7 8
7 7 7 7 7 7 7 7 8 7 7 6 6 5 5 5 5 5 4 4 3 3 2 2 2 1 0 1 2 2 2 2 3 4 4 4 6 6 7 8 7 7 7
6 6 6 7 7 7 7 7 7 7 6 5 5 5 5 4 4 4 4 4 3 3 2 2 2 1 1 2 2 2 2 2 2 3 4 4 5 6 7 7 7 7 8
5 6 6 6 7 7 7 7 7 6 6 5 4 4 4 4 4 4 4 4 3 3 2 2 2 2 2 2 2 2 2 2 3 3 4 5 5 6 6 7 7 8 8
4 5 5 6 6 6 5 5 5 5 5 4 4 4 3 3 3 3 3 3 3 3 2 2 2 2 3 3 2 2 3 4 4 5 5 5 6 6 7 7 8 8 9
4 4 4 5 5 5 5 4 4 3 3 4 4 3 3 4 3 3 3 3 3 2 2 2 2 3 4 4 4 4 4 5 5 4 5 6 7 7 8 9 10 11 11
3 3 3 3 3 4 4 3 3 2 2 3 3 3 3 3 3 3 3 3 3 3 3 3 3 4 5 5 5 5 5 5 6 6 6 7 8 9 10 12 13 14 14
4 3 3 2 2 2 2 2 2 2 2 2 2 2 2 3 3 3 3 3 3 3 3 3 3 4 5 6 6 6 7 7 8 9 9 10 11 11 12 13 14 15 16
5 5 4 3 2 1 1 0 0 1 1 1 1 1 2 2 3 3 3 3 4 4 4 5 5 5 6 7 7 8 9 9 10 11 12 12 13 14 14 14 15 16 17
7 6 5 4 4 3 2 2 2 1 1 1 1 1 2 2 3 3 3 4 5 5 6 6 7 8 8 9 10 10 11 11 12 13 14 14 15 15 16 16 17 18 19
8 8 7 6 5 4 4 3 3 3 3 3 2 2 3 3 4 4 4 5 6 7 7 8 9 10 11 11 12 13 13 13 14 15 16 16 17 18 18 19 20 21 22
9 9 8 8 7 6 5 5 5 4 4 4 4 4 5 5 5 5 6 6 7 8 9 10 11 12 12 13 14 14 15 16 16 17 18 19 19 20 21 22 23 24 25
10 9 9 9 8 8 7 7 6 6 6 6 6 6 6 7 7 7 8 8 9 9 10 11 12 13 14 15 16 16 17 18 19 20 21 21 22 23 23 24 25 26 27
12 12 11 11 10 9 9 9 8 8 8 8 8 8 8 8 9 9 10 10 11 11 12 13 14 15 16 17 18 19 19 20 21 22 23 24 25 26 26 26 27 29 30
15 14 13 13 12 12 11 10 10 10 10 10 10 10 10 10 11 11 12 12 13 14 15 16 17 17 18 19 20 21 21 22 23 25 26 26 27 28 28 29 30 31 32
16 15 15 14 14 14 13 12 12 12 11 12 12 12 12 13 13 14 14 15 15 16 17 18 19 20 21 22 23 23 23 24 26 27 28 28 29 29 29 30 31 33 34
17 17 16 16 16 16 15 15 15 14 14 14 14 14 15 15 15 16 16 17 17 18 19 20 21 22 23 24 25 25 26 26 28 29 30 31 30 30 30 31 33 34 35
Wind_Direction
16 18 16 16 19 33 54 77 122 173 180 187 193 199 204 204 207 207 209 214 215 218 223 225 228 232 238 240 241 246 247 242 243 249 248 243 241 242 245 252 259 266 272
23 24 23 26 35 44 55 74 99 119 137 159 174 186 192 193 197 201 205 209 213 217 219 224 227 231 237 238 239 242 244 242 242 246 247 242 241 243 248 253 258 266 271
25 27 29 35 41 48 57 77 96 103 118 136 149 161 172 176 187 195 200 201 204 208 214 223 231 233 236 232 235 240 244 246 241 241 243 242 243 247 251 254 259 266 271
33 35 37 42 48 56 68 83 91 102 114 122 133 148 154 161 171 182 188 191 194 205 211 222 228 231 234 232 233 235 240 245 242 241 243 245 247 253 257 260 261 266 270
41 44 46 50 54 61 71 85 96 102 108 113 118 125 134 139 139 157 167 173 181 192 206 216 222 230 230 229 230 235 240 245 244 243 247 250 253 257 260 263 264 265 266
49 50 52 54 60 67 76 85 95 103 107 110 113 109 113 114 114 123 134 145 158 172 192 207 214 222 215 220 231 238 242 245 243 245 248 251 258 261 264 265 266 264 264
55 54 56 61 66 73 80 85 89 95 103 105 106 107 105 102 103 103 108 119 136 154 172 182 191 194 199 205 218 233 234 243 249 250 253 258 266 267 268 266 267 269 267
64 61 62 67 71 76 79 83 87 90 100 103 105 107 103 103 103 102 105 105 113 132 158 178 175 188 197 199 216 240 253 251 258 256 259 261 266 268 270 272 271 269 265
68 67 66 71 77 78 79 82 86 92 101 105 103 101 98 97 100 100 106 104 99 106 110 142 141 151 178 174 205 260 263 260 263 263 263 265 269 272 275 277 275 269 265
73 74 75 77 79 79 79 79 83 92 101 107 107 103 98 95 94 98 96 90 88 87 91 106 98 118 143 251 282 279 277 271 273 273 271 269 269 273 273 276 278 274 267
80 80 80 81 81 81 82 82 82 90 100 107 110 108 99 92 89 86 79 82 82 74 79 93 92 102 60 333 315 297 284 277 274 271 269 272 271 274 275 276 279 276 271
86 83 81 82 83 83 83 87 88 91 98 103 109 109 99 89 81 73 73 77 73 67 65 56 54 62 9 335 326 318 303 294 287 280 278 283 281 282 287 284 282 276 273
97 91 86 87 88 87 87 87 87 87 92 100 107 105 93 84 80 74 64 61 57 58 65 30 21 21 7 359 339 336 341 322 303 303 292 287 287 288 282 282 282 282 279
111 100 92 92 91 88 86 85 85 86 89 87 91 95 84 73 69 62 50 51 59 67 66 32 28 5 4 5 359 347 328 309 308 311 299 291 288 288 282 281 285 284 283
132 117 107 98 91 86 85 85 86 84 82 79 81 84 71 58 51 46 38 40 40 41 42 38 28 20 8 359 346 336 323 313 310 305 296 293 291 293 293 293 291 288 286
157 153 140 121 106 97 92 89 88 89 88 83 80 83 66 49 45 40 35 28 22 22 22 17 3 353 350 352 344 336 326 315 308 305 302 296 295 295 292 288 288 287 289
187 185 177 163 141 120 106 91 85 87 90 83 77 59 42 27 25 23 17 3 2 3 4 355 344 339 337 339 339 332 324 320 319 316 311 306 302 297 299 293 292 291 291
209 209 203 199 188 179 168 161 121 79 82 76 31 12 8 5 2 355 346 336 334 334 333 331 327 323 324 327 327 326 325 323 320 317 314 310 308 305 302 300 298 297 295
214 215 217 218 221 226 228 232 240 237 236 267 283 303 333 337 334 331 329 324 321 320 320 321 320 320 323 323 321 321 321 320 319 316 313 310 307 305 303 302 300 300 299
223 222 222 225 230 234 238 242 241 246 251 256 268 280 300 306 309 313 314 316 318 319 320 321 322 321 322 321 320 320 318 317 315 313 312 310 308 306 304 302 301 301 301
229 229 229 229 232 233 238 241 245 253 257 263 270 277 285 290 293 297 299 302 306 311 313 316 317 317 317 316 316 316 314 313 313 312 311 310 308 307 304 302 301 300 299
228 230 231 231 234 233 236 241 248 254 259 264 271 277 283 286 290 293 297 299 302 306 308 310 312 312 313 312 313 313 311 312 312 312 311 310 308 308 305 303 301 300 300
232 234 235 234 235 237 240 243 249 256 260 265 273 279 283 286 289 293 295 297 301 304 306 307 308 309 309 309 310 309 309 311 312 312 312 310 309 309 307 304 303 302 301
234 235 236 238 239 240 240 244 253 260 264 269 275 281 283 284 287 291 293 293 295 299 301 303 305 306 307 307 308 307 307 308 309 310 310 309 309 308 307 305 304 304 303
236 237 237 239 241 243 244 247 254 260 265 269 272 277 281 283 287 290 291 292 294 296 298 301 303 305 305 306 306 305 306 306 306 308 309 308 307 306 305 305 306 305 305
237 237 239 240 242 246 248 250 254 258 263 267 271 275 278 282 285 288 289 291 293 295 297 299 302 304 305 305 304 304 305 306 306 307 307 307 306 305 305 305 305 305 305
Height
5869 5867 5865 5863 5862 5861 5860 5860 5860 5859 5860 5861 5862 5863 5865 5866 5867 5869 5870 5871 5873 5874 5875 5876 5877 5878 5879 5880 5881 5881 5882 5882 5883 5883 5883 5883 5884 5884 5885 5886 5886 5885 5885
5868 5867 5865 5863 5862 5860 5860 5860 5860 5860 5860 5861 5862 5863 5864 5865 5867 5868 5869 5870 5872 5873 5874 5875 5876 5877 5877 5878 5879 5880 5880 5881 5881 5881 5882 5882 5882 5883 5883 5884 5884 5883 5883
5868 5867 5865 5864 5862 5861 5860 5860 5860 5860 5861 5861 5862 5863 5864 5865 5866 5867 5868 5870 5871 5872 5873 5874 5875 5875 5876 5877 5877 5878 5878 5879 5879 5880 5880 5881 5881 5881 5881 5882 5882 5882 5881
5868 5867 5866 5864 5863 5862 5861 5861 5861 5861 5861 5862 5863 5863 5864 5865 5866 5867 5868 5869 5870 5871 5872 5873 5873 5874 5874 5875 5875 5876 5877 5877 5877 5878 5878 5879 5879 5879 5879 5879 5879 5879 5879
5869 5867 5866 5865 5864 5863 5862 5862 5862 5862 5863 5863 5864 5864 5865 5866 5867 5867 5868 5869 5870 5870 5871 5872 5873 5873 5873 5874 5874 5874 5875 5875 5876 5876 5877 5877 5877 5878 5877 5877 5877 5877 5877
5869 5868 5867 5866 5865 5864 5864 5863 5863 5864 5864 5864 5865 5865 5866 5867 5867 5868 5868 5869 5870 5870 5871 5872 5872 5872 5872 5873 5873 5873 5873 5874 5874 5874 5875 5875 5875 5875 5875 5875 5874 5874 5874
5870 5869 5868 5867 5867 5866 5865 5865 5865 5865 5866 5866 5867 5867 5868 5868 5868 5868 5869 5869 5870 5871 5871 5871 5872 5872 5872 5872 5872 5872 5872 5872 5872 5872 5873 5873 5873 5873 5872 5872 5872 5872 5871
5871 5870 5869 5869 5868 5868 5867 5867 5867 5867 5867 5868 5868 5869 5869 5870 5869 5870 5870 5870 5871 5871 5871 5871 5871 5871 5872 5871 5871 5871 5871 5871 5871 5871 5871 5871 5870 5870 5870 5869 5869 5869 5868
5872 5871 5871 5870 5870 5870 5869 5869 5869 5869 5869 5870 5870 5870 5870 5870 5870 5871 5871 5871 5871 5871 5871 5871 5871 5871 5871 5871 5871 5871 5870 5870 5869 5869 5868 5868 5868 5867 5867 5866 5866 5865 5865
5873 5873 5872 5872 5872 5871 5871 5870 5870 5870 5870 5871 5871 5871 5872 5872 5872 5872 5872 5872 5871 5871 5871 5871 5871 5871 5871 5871 5871 5870 5870 5869 5868 5867 5866 5866 5865 5865 5865 5864 5863 5863 5862
5875 5874 5874 5873 5873 5873 5872 5872 5872 5872 5872 5872 5872 5873 5873 5873 5873 5873 5873 5872 5872 5872 5871 5871 5871 5871 5871 5870 5870 5869 5868 5867 5867 5866 5865 5864 5863 5863 5863 5862 5862 5861 5861
5876 5876 5875 5875 5874 5874 5874 5874 5873 5873 5873 5874 5874 5874 5874 5874 5874 5874 5874 5873 5873 5872 5872 5871 5871 5870 5870 5869 5869 5868 5867 5866 5866 5865 5864 5863 5862 5861 5861 5860 5860 5859 5859
5877 5877 5876 5876 5876 5875 5875 5875 5875 5875 5874 5874 5875 5875 5875 5875 5875 5874 5874 5873 5873 5873 5872 5871 5871 5870 5869 5869 5868 5867 5866 5866 5865 5864 5863 5862 5861 5860 5860 5859 5859 5858 5858
5878 5878 5877 5877 5877 5876 5876 5876 5876 5876 5876 5875 5875 5876 5875 5875 5875 5875 5874 5874 5873 5873 5872 5871 5871 5870 5869 5868 5867 5866 5865 5864 5864 5863 5861 5861 5860 5860 5858 5857 5857 5856 5856
5878 5878 5878 5878 5878 5877 5877 5877 5877 5877 5877 5877 5876 5876 5876 5876 5876 5875 5875 5874 5874 5873 5872 5871 5870 5869 5868 5867 5866 5865 5864 5863 5862 5861 5860 5859 5859 5858 5857 5856 5855 5854 5854
5878 5879 5878 5878 5878 5878 5878 5878 5877 5877 5877 5877 5877 5877 5877 5876 5876 5875 5875 5874 5874 5873 5872 5871 5870 5869 5868 5867 5866 5864 5863 5862 5861 5860 5858 5858 5857 5856 5855 5854 5853 5852 5851
5878 5878 5878 5879 5878 5878 5878 5878 5878 5878 5878 5878 5878 5877 5877 5877 5876 5875 5875 5874 5873 5873 5872 5871 5870 5869 5867 5866 5865 5863 5862 5861 5859 5858 5856 5855 5854 5853 5851 5850 5849 5848 5847
5877 5877 5878 5878 5878 5878 5878 5878 5878 5878 5878 5878 5878 5877 5877 5877 5876 5875 5875 5874 5873 5872 5872 5870 5869 5868 5867 5865 5864 5862 5860 5859 5857 5856 5854 5852 5850 5849 5848 5846 5845 5843 5842
5876 5876 5877 5877 5877 5877 5877 5877 5877 5878 5878 5877 5877 5877 5877 5876 5876 5875 5874 5874 5873 5871 5870 5869 5868 5867 5865 5864 5862 5860 5858 5856 5854 5853 5851 5849 5847 5845 5843 5842 5840 5839 5837
5875 5875 5876 5876 5876 5876 5877 5877 5877 5877 5877 5877 5877 5877 5876 5876 5875 5874 5874 5873 5872 5871 5869 5868 5867 5865 5863 5861 5860 5858 5856 5854 5851 5849 5847 5844 5842 5840 5838 5836 5834 5833 5831
5873 5873 5874 5874 5875 5875 5875 5876 5876 5876 5876 5876 5876 5875 5875 5874 5874 5873 5872 5871 5870 5869 5868 5866 5865 5863 5861 5859 5857 5855 5853 5850 5848 5845 5842 5839 5837 5834 5832 5830 5828 5826 5825
5870 5871 5872 5873 5873 5873 5874 5874 5874 5874 5874 5874 5874 5874 5873 5873 5872 5871 5870 5869 5868 5867 5866 5864 5862 5861 5859 5856 5854 5851 5849 5847 5844 5841 5837 5834 5831 5828 5825 5823 5821 5819 5817
5868 5869 5869 5870 5870 5871 5872 5872 5872 5872 5872 5872 5872 5872 5871 5870 5870 5869 5868 5867 5865 5864 5863 5861 5859 5857 5855 5853 5850 5847 5845 5842 5839 5835 5832 5828 5825 5821 5818 5815 5813 5811 5808
5864 5865 5867 5867 5868 5868 5869 5869 5870 5870 5870 5870 5869 5869 5868 5868 5867 5866 5865 5864 5862 5861 5859 5857 5855 5853 5851 5848 5846 5843 5840 5837 5833 5830 5826 5823 5819 5815 5811 5808 5805 5803 5800
5860 5862 5863 5864 5864 5865 5866 5866 5867 5867 5867 5867 5866 5866 5865 5865 5864 5863 5862 5860 5859 5857 5855 5853 5851 5848 5846 5843 5840 5838 5835 5832 5828 5824 5820 5816 5812 5809 5805 5801 5797 5794 5791
5857 5858 5859 5860 5861 5861 5862 5863 5863 5863 5863 5863 5863 5862 5862 5861 5860 5858 5857 5856 5854 5852 5851 5849 5846 5844 5841 5838 5835 5832 5829 5826 5822 5818 5813 5809 5805 5801 5798 5795 5790 5786 5782